User: anonymous   Login
Location: Caltech
(34.1382°N, 118.1253°W)
Time: 15:14:43
(UTC-07:00)
Language:

Cosmos 2219 - Orbit

View from above orbital plane
View from above orbital plane
View from above satellite
View from above satellite

Ground track
Ground track

The orbit data is extracted from the following two-line orbital elements,

1 22219U 92076A   17289.62695750 -.00000120  00000-0 -38570-4 0  9999
2 22219  71.0604 304.0498 0019214 211.5700 148.4271 14.13624819285378
Epoch (UTC): 16 October 2017 15:02:49
Eccentricity: 0.0019214
inclination: 71.0604°
perigee height: 833 km
apogee height: 861 km
right ascension of ascending node: 304.0498°
argument of perigee: 211.5700°
revolutions per day: 14.13624819
mean anomaly at epoch: 148.4271°
orbit number at epoch: 28537

The dashed part of the orbit path shows where the satellite is in the earth's shadow,  

DLR